WESTFORD NEEDLES, 19030

Orbit data source: Space-Track

WESTFORD NEEDLES, 19030 is space debris in LEO originally from a launch on Thu, 09 May 1963 UTC launched from the Air Force Western Test Range (AFWTR). Debris objects in space refer to the collection of defunct objects orbiting the Earth. Examples of debris include non-operational satellites, rocket bodies, and fragments generated from explosions, collisions, or faulty payload assembly.

Loading next visibility...
Identifier
19030, 1963-014DY
Orbit
LEO
Country
Flag of USUS
Related business
Manufacturer
Unknown
Mission
Spacecraft
Bus & Motor
Unknown
Mass
Unknown
Launch date (UTC)
1963-05-09 (63 years ago)
Launch vehicle
Unknown
Launch site
Air Force Western Test Range (AFWTR)
Object type
Payload
Rocket body
Debris
Shape & HBR
Unknown shape, 1.1 m
Radar Cross Section
Medium (>0.1 m² and <1 m²)

Expand to show TLE details & history
Last TLE update: 2 days ago

TLE from 2 days ago
0 WESTFORD NEEDLES
1 19030U 63014DY  25339.16790147  .00000512  00000-0  24049+0 0  9990
2 19030  87.3556 249.4337 0029319 252.7211 107.0434  8.64536357372193
Epoch: 2025-12-05T04:01Z
TLE epoch observation values (Epoch: 2025-12-05T04:01:46.687Z)
Latitude
-0.00002°
Longitude
114.7753°
Altitude
3,660.715 km
Speed
6.299 km/s
True Right ascension
16h 37m 44s
True Declination
0° 00' 00"
Sunlit
Object was in daylight at epoch
Visualization orbit readout
Latitude
Unknown
Longitude
Unknown
Altitude
Unknown
Speed
Unknown
Apparent Right ascension
Unknown
Apparent Declination
Unknown
Sunlit
N/A
Visualization observer readout
Local Sidereal Time
06:13:33
Azimuth
Unknown
Elevation
Unknown
Doppler factor
Unknown
Orbital elements
Apogee altitude
3,677.052 km
Perigee altitude
3,618.262 km
Semi-major axis
10,025.794 km
Eccentricity
0.00293
Inclination
87.3556°
RAAN
249.4337°
Arg. of periapsis
252.7211°
True anomaly
107.36427°
Mean anomaly
107.0434°
Eccentric anomaly
107.20387°
Mean motion
2.16205 °/min
Orbital period
166.51 mins
BSTAR
0.24049

Documentation

Showing up to 5 results
|